When you browse on this site, cookies collect data to enhance your experience and personalize the content and advertising you see.
Visit our Privacy Policy to learn more. By continuing to use the site, you agree to this use of cookies and data.
  • In Spain
  • List of Countries
  • For 7 days
  • Water Temperature
  • Satellite Maps
  • Weather Map
  • Weather Widgets
  • user-avatar
    Login

    Hourly Weather Sidi Bu-l-Abbas

    Today, 16 December, Sunday

    Time Temperature Precipitation Wind Pressure Humidity
    00:00 +13°C° 0 mm 2 mps 726 mmHg 41%
    01:00 +12°C° 0 mm 2 mps 726 mmHg 42%
    02:00 +12°C° 0 mm 2 mps 726 mmHg 42%
    03:00 +12°C° 0 mm 2 mps 725 mmHg 42%
    04:00 +12°C° 0 mm 2 mps 725 mmHg 43%
    05:00 +12°C° 0 mm 2 mps 725 mmHg 43%
    06:00 +12°C° 0 mm 2 mps 725 mmHg 44%
    07:00 +14°C° 0 mm 2 mps 725 mmHg 42%
    08:00 +14°C° 0 mm 3 mps 725 mmHg 40%
    09:00 +16°C° 0 mm 3 mps 725 mmHg 39%
    10:00 +18°C° 0 mm 3 mps 726 mmHg 35%
    11:00 +20°C° 0 mm 3 mps 726 mmHg 32%
    12:00 +21°C° 0 mm 4 mps 726 mmHg 29%
    13:00 +21°C° 0 mm 4 mps 726 mmHg 30%
    14:00 +21°C° 0 mm 5 mps 725 mmHg 32%
    15:00 +20°C° 0 mm 5 mps 725 mmHg 34%
    16:00 +19°C° 0 mm 5 mps 725 mmHg 40%
    17:00 +17°C° 0 mm 4 mps 726 mmHg 46%
    18:00 +14°C° 0 mm 3 mps 726 mmHg 52%
    19:00 +14°C° 0 mm 3 mps 726 mmHg 52%
    20:00 +13°C° 0 mm 3 mps 726 mmHg 53%
    21:00 +13°C° 0 mm 3 mps 727 mmHg 53%
    22:00 +13°C° 0 mm 3 mps 727 mmHg 54%
    23:00 +13°C° 0 mm 3 mps 727 mmHg 54%

    Tomorrow, 17 December, Monday

    Time Temperature Precipitation Wind Pressure Humidity
    00:00 +13°C° 0 mm 3 mps 727 mmHg 55%
    01:00 +13°C° 0 mm 2 mps 727 mmHg 58%
    02:00 +13°C° 0 mm 2 mps 727 mmHg 61%
    03:00 +13°C° 0 mm 2 mps 727 mmHg 63%
    04:00 +12°C° 0 mm 2 mps 727 mmHg 68%
    05:00 +12°C° 0 mm 1 mps 727 mmHg 72%
    06:00 +12°C° 0 mm 1 mps 727 mmHg 76%
    07:00 +13°C° 0 mm 1 mps 727 mmHg 72%
    08:00 +14°C° 0 mm 1 mps 728 mmHg 67%
    09:00 +16°C° 0 mm 1 mps 728 mmHg 63%
    10:00 +16°C° 0 mm 1 mps 728 mmHg 62%
    11:00 +18°C° 0 mm 1 mps 728 mmHg 61%
    12:00 +19°C° 0 mm 1 mps 728 mmHg 59%
    13:00 +19°C° 0 mm 1 mps 728 mmHg 58%
    14:00 +19°C° 0 mm 1 mps 727 mmHg 57%
    15:00 +19°C° 0 mm 1 mps 727 mmHg 55%
    16:00 +17°C° 0 mm 2 mps 727 mmHg 61%
    17:00 +16°C° 0 mm 2 mps 727 mmHg 66%
    18:00 +15°C° 0 mm 2 mps 727 mmHg 72%
    19:00 +15°C° 0 mm 2 mps 727 mmHg 73%
    20:00 +14°C° 0 mm 2 mps 727 mmHg 74%
    21:00 +14°C° 0 mm 2 mps 727 mmHg 76%
    22:00 +13°C° 0 mm 2 mps 727 mmHg 75%
    23:00 +13°C° 0 mm 2 mps 727 mmHg 74%

    Day after tomorrow, 18 December, Tuesday

    Time Temperature Precipitation Wind Pressure Humidity
    00:00 +13°C° 0 mm 2 mps 727 mmHg 74%
    01:00 +13°C° 0 mm 2 mps 727 mmHg 72%
    02:00 +12°C° 0 mm 2 mps 726 mmHg 71%
    03:00 +12°C° 0 mm 2 mps 726 mmHg 70%
    04:00 +12°C° 0 mm 2 mps 726 mmHg 68%
    05:00 +12°C° 0 mm 2 mps 725 mmHg 66%
    06:00 +12°C° 0 mm 2 mps 725 mmHg 64%
    07:00 +13°C° 0 mm 2 mps 725 mmHg 58%
    08:00 +14°C° 0 mm 2 mps 726 mmHg 52%
    09:00 +16°C° 0 mm 2 mps 726 mmHg 45%
    10:00 +17°C° 0 mm 2 mps 726 mmHg 41%
    11:00 +19°C° 0 mm 2 mps 726 mmHg 36%
    12:00 +20°C° 0 mm 2 mps 726 mmHg 32%
    13:00 +20°C° 0 mm 2 mps 725 mmHg 32%
    14:00 +21°C° 0 mm 2 mps 725 mmHg 32%
    15:00 +21°C° 0 mm 3 mps 724 mmHg 32%
    16:00 +19°C° 0 mm 2 mps 724 mmHg 40%
    17:00 +17°C° 0 mm 2 mps 724 mmHg 48%
    18:00 +15°C° 0 mm 1 mps 724 mmHg 55%
    19:00 +15°C° 0 mm 1 mps 725 mmHg 57%
    20:00 +14°C° 0 mm 1 mps 725 mmHg 59%
    21:00 +14°C° 0 mm 1 mps 725 mmHg 61%
    22:00 +13°C° 0 mm 1 mps 725 mmHg 61%
    23:00 +13°C° 0 mm 1 mps 725 mmHg 62%

    19 December, Wednesday

    Time Temperature Precipitation Wind Pressure Humidity
    00:00 +13°C° 0 mm 1 mps 725 mmHg 62%
    01:00 +12°C° 0 mm 1 mps 725 mmHg 61%
    02:00 +12°C° 0 mm 1 mps 724 mmHg 60%
    03:00 +12°C° 0 mm 1 mps 724 mmHg 59%
    04:00 +12°C° 0 mm 1 mps 724 mmHg 58%
    05:00 +12°C° 0 mm 1 mps 724 mmHg 57%
    06:00 +12°C° 0 mm 1 mps 725 mmHg 56%
    07:00 +13°C° 0 mm 1 mps 725 mmHg 53%
    08:00 +14°C° 0 mm 1 mps 725 mmHg 50%
    09:00 +16°C° 0 mm 2 mps 726 mmHg 47%
    10:00 +17°C° 0 mm 2 mps 726 mmHg 43%
    11:00 +18°C° 0 mm 2 mps 726 mmHg 40%
    12:00 +19°C° 0 mm 2 mps 726 mmHg 36%
    13:00 +19°C° 0 mm 2 mps 725 mmHg 37%
    14:00 +19°C° 0 mm 3 mps 725 mmHg 38%
    15:00 +19°C° 0 mm 3 mps 724 mmHg 39%
    16:00 +18°C° 0 mm 2 mps 725 mmHg 47%
    17:00 +16°C° 0 mm 2 mps 725 mmHg 55%
    18:00 +15°C° 0 mm 1 mps 725 mmHg 62%
    19:00 +14°C° 0 mm 1 mps 725 mmHg 64%
    20:00 +14°C° 0 mm 1 mps 725 mmHg 67%
    21:00 +14°C° 0 mm 1 mps 726 mmHg 69%
    22:00 +13°C° 0 mm 1 mps 726 mmHg 71%
    23:00 +13°C° 0 mm 1 mps 726 mmHg 73%

    20 December, Thursday

    Time Temperature Precipitation Wind Pressure Humidity
    00:00 +12°C° 0 mm 1 mps 726 mmHg 75%
    01:00 +12°C° 0 mm 1 mps 725 mmHg 76%
    02:00 +12°C° 0 mm 1 mps 725 mmHg 78%
    03:00 +11°C° 0 mm 1 mps 725 mmHg 79%
    04:00 +11°C° 0 mm 1 mps 725 mmHg 79%
    05:00 +11°C° 0 mm 1 mps 725 mmHg 79%
    06:00 +11°C° 0 mm 1 mps 725 mmHg 78%
    07:00 +12°C° 0 mm 1 mps 726 mmHg 72%
    08:00 +13°C° 0 mm 1 mps 726 mmHg 67%
    09:00 +14°C° 0 mm 1 mps 727 mmHg 61%
    10:00 +15°C° 0 mm 1 mps 727 mmHg 57%
    11:00 +16°C° 0 mm 1 mps 727 mmHg 53%
    12:00 +16°C° 0 mm 2 mps 727 mmHg 49%
    13:00 +17°C° 0 mm 2 mps 727 mmHg 49%
    14:00 +17°C° 0 mm 2 mps 726 mmHg 49%
    15:00 +17°C° 0 mm 3 mps 726 mmHg 49%
    16:00 +15°C° 0 mm 2 mps 727 mmHg 56%
    17:00 +14°C° 0 mm 1 mps 727 mmHg 62%
    18:00 +13°C° 0 mm 1 mps 727 mmHg 68%
    19:00 +12°C° 0 mm 1 mps 728 mmHg 72%
    20:00 +11°C° 0 mm 0 mps 728 mmHg 75%
    21:00 +10°C° 0 mm 0 mps 729 mmHg 78%
    22:00 +10°C° 0 mm 0 mps 729 mmHg 80%
    23:00 +9°C° 0 mm 0 mps 729 mmHg 81%

    21 December, Friday

    Time Temperature Precipitation Wind Pressure Humidity
    00:00 +9°C° 0 mm 0 mps 729 mmHg 83%
    01:00 +9°C° 0 mm 0 mps 728 mmHg 83%
    02:00 +8°C° 0 mm 0 mps 728 mmHg 83%
    03:00 +8°C° 0 mm 0 mps 728 mmHg 83%
    04:00 +8°C° 0 mm 0 mps 728 mmHg 84%
    05:00 +8°C° 0 mm 0 mps 728 mmHg 84%
    06:00 +7°C° 0 mm 0 mps 729 mmHg 85%
    07:00 +9°C° 0 mm 0 mps 729 mmHg 76%
    08:00 +12°C° 0 mm 1 mps 730 mmHg 68%
    09:00 +13°C° 0 mm 1 mps 730 mmHg 60%
    10:00 +14°C° 0 mm 1 mps 730 mmHg 54%
    11:00 +15°C° 0 mm 1 mps 730 mmHg 48%
    12:00 +15°C° 0 mm 0 mps 730 mmHg 41%
    13:00 +18°C° 0 mm 1 mps 730 mmHg 40%
    14:00 +18°C° 0 mm 1 mps 730 mmHg 38%
    15:00 +19°C° 0 mm 1 mps 729 mmHg 36%
    16:00 +16°C° 0 mm 1 mps 729 mmHg 42%
    17:00 +15°C° 0 mm 1 mps 729 mmHg 47%
    18:00 +13°C° 0 mm 2 mps 729 mmHg 53%
    19:00 +13°C° 0 mm 1 mps 730 mmHg 54%
    20:00 +13°C° 0 mm 1 mps 730 mmHg 54%
    21:00 +12°C° 0 mm 1 mps 730 mmHg 55%
    22:00 +12°C° 0 mm 1 mps 730 mmHg 55%
    23:00 +12°C° 0 mm 1 mps 730 mmHg 54%
    Show more